Regional Weather Roundup
Issued by NWS Grand Forks, ND

Home | Current Version | Previous Version | Graphics & Text | Print | Product List | Glossary On
Versions: 1 2 3 4 5 6 7 8 9 10 11 12 13 14 15 16 17 18 19 20 21 22 23 24 25 26 27 28 29 30 31 32 33 34 35 36 37 38 39 40 41 42 43 44 45 46 47 48 49 50
000
ASUS43 KFGF 260531
RWRFGF
PRAIRIE TO PINES  WEATHER ROUNDUP
NATIONAL WEATHER SERVICE EASTERN NORTH DAKOTA/GRAND FORKS ND
1100 PM CST TUE NOV 25 2014

 **SATELLITE DATA USED TO AUGMENT SKY COVER AT AUTOMATED STATIONS**
 *****  WEATHER ACROSS EASTERN NORTH DAKOTA  *****

CITY           SKY/WX    TMP DP  RH WIND       PRES   REMARKS
GRAND FORKS    LGT SNOW  12   8  84 N15       30.13R FOG     WCI  -4
GRAND FRKS AFB LGT SNOW  10   7  85 N15       30.14R FOG     WCI  -6
GRAND FRKS NWS   N/A     10 N/A N/A N18         N/A  WCI  -8
DEVILS LAKE    CLOUDY     9  -2  61 NE14      30.11R WCI  -8
FARGO          LGT SNOW  23  20  88 N14       30.03R FOG     WCI  11
WAHPETON ARPT  CLOUDY    25  16  68 NE10      29.99R WCI  15
$$

 ***** WEATHER ACROSS CENTRAL AND WESTERN NORTH DAKOTA  *****

CITY           SKY/WX    TMP DP  RH WIND       PRES   REMARKS
BISMARCK       CLOUDY    19  13  77 N18G26    30.05R WCI   4
MINOT          CLOUDY     7   2  80 N14       30.16R WCI -10
JAMESTOWN      LGT SNOW  15  11  83 NE23      30.01R FOG     WCI  -3
MINOT AFB      PTCLDY     3   0  85 NW9       30.16R WCI -11
GARRISON         N/A     15  11  83 N10G18    30.11R WCI   2
WILLISTON      CLOUDY    17  11  77 NE10      30.17R WCI   5
DICKINSON      CLOUDY    21  17  84 N14G25    30.06R WCI   8
HETTINGER      CLOUDY    22  19  89 N23G30    30.03R WCI   6
$$

 *****  OTHER AIRPORT OBSERVATIONS IN OUR AREA  *****

CITY           SKY/WX    TMP DP  RH WIND       PRES   REMARKS
WALHALLA         N/A      7   3  85 N13       30.21R WCI  -9
GRAFTON AIRPOR CLOUDY     9   5  85 N18G25    30.17R WCI -10
VALLEY CITY AR LGT SNOW  14  14 100 NE15G28   30.03R WCI  -1
CANDO          MOCLDY     5   1  85 N12       30.16R WCI -11
CAVALIER APRT  MOCLDY     7   1  78 N12G20    30.20R WCI  -9
GWINNER        CLOUDY    23  21  93 NE18      29.96R VSB 1   WCI   9
SHEYENNE NWR     N/A     22  20  91 NE10      29.95  WCI  11
ROLLA          CLOUDY     5   1  85 N14       30.15R WCI -12
 ***** THE ABOVE OBSERVATIONS ARE NON NWS ARE NOT QUALITY
       CONTROLLED AND MAY MIS-REPORT RAIN FOR SNOW...
$$

  *****  WEATHER ACROSS NORTHERN MINNESOTA  *****

CITY           SKY/WX    TMP DP  RH WIND       PRES   REMARKS
FLAG ISLAND    LGT SNOW  10   7  85 N12       30.10R WCI  -4
WARROAD        LGT SNOW  12   9  85 N5        30.11R WCI   4
ROSEAU         FLURRIES  12   9  85 N7        30.12R WCI   2
HALLOCK        MOCLDY     9   1  72 N16       30.17R WCI  -9
THF RVR FALLS  CLOUDY    16  10  79 N15       30.09R WCI   1
BAUDETTE       LGT SNOW  14  10  84 N9        30.08R FOG     WCI   2
WASKISH        CLOUDY    18  14  86 CALM      30.06R
CROOKSTON      FLURRIES  16  12  86 N14       30.11R WCI   1
STEPHEN NDAWN    N/A     10   7  85 VRB14       N/A  WCI  -5
GREENBUSH NDAW   N/A     10   9  92 N12         N/A  WCI  -4
$$
  *****  WEATHER ACROSS CENTRAL AND WEST MINNESOTA  *****

CITY           SKY/WX    TMP DP  RH WIND       PRES   REMARKS
FOSSTON        LGT SNOW  18  16  93 N8        30.04R WCI   7
BEMIDJI        LGT SNOW  19  13  79 SE3       30.02R
PARK RAPIDS    CLOUDY    18   8  65 E5        30.00R WCI  11
ELBOW LAKE       N/A     22  15  72 E10       29.95R WCI  11
WADENA         CLOUDY    18  10  73 NE8       29.99R WCI   7
DETROIT LAKES  MIX PCPN  21  16  79 E6        30.00S WCI  14
MOORHEAD       LGT RAIN  23  23 100 NE8       30.03R WCI  14
FERGUS FALLS   CLOUDY    21  12  68 E12       30.00R WCI   9
MORRIS MN      CLOUDY    25  18  74 E13       29.91R WCI  13
STAPLES        CLOUDY    18  10  73 NE3       30.00R
$$
  *****  WEATHER ELSEWHERE ACROSS MINNESOTA  *****

CITY           SKY/WX    TMP DP  RH WIND       PRES   REMARKS
DULUTH         CLOUDY    18  11  74 SW5       30.03R WCI  11
INTRNTL FALLS  LGT SNOW  16  10  77 N3        30.06R
ELY            PTCLDY     1   0  92 CALM      30.04R
CLOQUET        CLOUDY    18  10  73 CALM      30.04S
WHEATON        CLOUDY    23  16  74 NE8       29.96R WCI  14
BRAINERD       CLOUDY    18   9  68 NE3       30.02R
HIBBING        CLOUDY    19   7  59 CALM      30.03R
ALEXANDRIA     CLOUDY    21  13  71 E10       29.95R WCI  10
SAINT CLOUD    CLOUDY    23  14  68 E5        29.99S WCI  17
MINNEAPOLIS    CLOUDY    24  15  68 SE8       30.03F WCI  15
$$

  *****  WEATHER ACROSS SOUTH DAKOTA  *****

CITY           SKY/WX    TMP DP  RH WIND       PRES   REMARKS
SIOUX FALLS    LGT SNOW  31  30  96 SE7       29.81S FOG     WCI  24
BROOKINGS      NOT AVBL
WATERTOWN      LGT SNOW  29  26  89 E7        29.81R FOG     WCI  22
HURON          CLOUDY    31  30  96 CALM      29.80R
SISSETON         N/A     24  23  96 E7        29.90R WCI  16
ABERDEEN       CLOUDY    31  28  89 E8        29.83R WCI  23
MITCHELL       CLOUDY    34  32  92 W5        29.82R
PIERRE         CLOUDY    36  30  79 NW22G31   29.84R
MOBRIDGE       CLOUDY    33  29  85 NW24G36   29.81R WCI  20
RAPID CITY     MOCLDY    32  23  69 NW31G41   29.98R WCI  17
$$

  *****  SOME WEATHER IN NEARBY STATES *****

CITY           SKY/WX    TMP DP  RH WIND       PRES   REMARKS
GLASGOW MT     CLOUDY    22  16  78 N10       30.19R WCI  11
GREAT FALLS MT CLOUDY    31  24  75 S10       30.13R WCI  22
CHEYENNE WY    CLOUDY    27  22  81 N25G33    30.02R HAZE    WCI  12
SCOTTSBLUFF NE CLOUDY    32  31  96 NW15      30.06R WCI  22
OMAHA NE       CLOUDY    39  26  59 S12       29.87F
DES MOINES IA  CLOUDY    31  15  52 SE9       30.00F WCI  23
DAVENPORT IA   CLEAR     16  13  88 SE8       30.14F WCI   5
CHICAGO IL     PTCLDY    19  16  88 S6        30.19S WCI  11
EAU CLAIRE WI  CLOUDY    23  15  71 CALM      30.08R
LA CROSSE WI   CLOUDY    19  14  81 E6        30.11F WCI  11
$$

  *****  SOME NATIONAL WEATHER *****

CITY           SKY/WX    TMP DP  RH WIND       PRES   REMARKS
LA GUARDIA NY  CLOUDY    51  28  41 W7        30.16R
RALEIGH NC     RAIN      49  45  86 N3        30.04F FOG
ATLANTA GA     CLOUDY    51  34  52 W9        30.03F
NEW ORLEANS LA CLEAR     48  33  56 NW12      30.23S
OKLAHOMA CITY  MOCLDY    41  27  57 S7        30.01F
ALBUQUERQUE NM PTCLDY    38   6  26 NW8       30.29S
SALT LAKE CITY MOCLDY    45  29  53 SE9       30.31R
LOS ANGELES CA CLEAR     64  51  62 VRB3      30.29R
BOISE ID       CLOUDY    51  41  68 NW6       30.28R
SEATTLE WA     CLOUDY    56  53  90 S15       30.17R
$$

*** WEATHER ACROSS MANITOBA...SASKATCHEWAN AND ONTARIO ***
                ***ONTARIO***

CITY           SKY/WX    TMP DP  RH WIND       PRES   REMARKS
GERALDTON      PTCLDY     3   0  85 NW5       30.06  WCI  -6
THUNDER BAY    CLOUDY    16  10  79 NW5       30.09S WCI   9
SIOUX LOOKOUT  FLURRIES   5   0  78 N3        30.07R
TORONTO        CLOUDY    34  25  69 SW12G17   30.19S
BIG TROUT LK   CLEAR    -20 -26  76 W8        30.10R WCI -39
PICKLE LAKE    NOT AVBL
DRYDEN         LGT SNOW   7   5  92 NE10      30.07R WCI  -8
KENORA         LGT SNOW   7   3  85 N7        30.09R WCI  -5
$$
                *** MANITOBA***

CITY           SKY/WX    TMP DP  RH WIND       PRES   REMARKS
BRANDON        MOCLDY    -4  -8  84 NE5       30.24R WCI -15
DAUPHIN        CLEAR    -17 -22  76 W7        30.31R WCI -33
ISLAND LAKE    CLEAR    -17 -24  70 W6        30.20R WCI -31
PILOT MOUND      N/A      3   0  85 N15         N/A  WCI -15
THE PAS        CLEAR    -13 -18  77 NW9       30.32R WCI -31
THOMPSON       CLEAR    -22 -27  76 W2        30.24R
WINNIPEG       CLEAR     -4 -13  65 N14G20    30.26R WCI -24
LYNN LAKE      CLEAR    -20 -26  76 NW8       30.24R WCI -39
CHURCHILL      CRYSTALS -17 -24  70 NW20G25   30.13R WCI -44
GILLAM         CLEAR    -18 -26  69 W9        30.18R WCI -38
$$
                ***SASKATCHEWAN***

CITY           SKY/WX    TMP DP  RH WIND       PRES   REMARKS
ESTEVAN        LGT SNOW N/A N/A N/A SE2         N/A
KINDERSLEY     FLURRIES  12   9  85 E9        30.18S WCI   0
LLOYDMINSTER   FLURRIES   3   0  85 E6        30.22S WCI  -8
PRINCE ALBERT  PTCLDY   -11 -17  77 NW3       30.33R
REGINA         FLURRIES   7   3  85 N8        30.23  WCI  -6
YORKTON        FLURRIES   0  -8  71 NW6       30.26R WCI -12
N. BATTLEFORD  MOCLDY     1  -4  78 NE9       30.29R WCI -14
LA RONGE       CLEAR    -20 -26  76 W3        30.34R
SASKATOON      FLURRIES   3   0  85 VRB2      30.30R
SWIFT CURRENT  CLOUDY    12   9  85 SE6       30.16R WCI   3
$$
NOTE: THESE ARE AUTOMATED STATIONS WITH LIMITED QUALITY CONTROL
      "FAIR" INDICATES FEW OR NO CLOUDS BELOW 12,000 FEET WITH NO
      SIGNIFICANT WEATHER AND/OR OBSTRUCTIONS TO VISIBILITY.
      SKY/WX - SKY CONDITION AND SIGNIFICANT WEATHER.
      TMP - AIR TEMPERATURE.    DP   - DEWPOINT TEMPERATURE.
      RH  - RELATIVE HUMIDITY.  PRES - PRESSURE.
      HX  - HEAT INDEX.         WCI  - WIND CHILL INDEX.
$



USA.gov is the U.S. government's official web portal to all federal, state and local government web resources and services.